Tracking 19920 objects as of 13-Oct-2019
HD Live streaming from Space Station
objects crossing your sky now

BNU-1

Track BNU-1 now!
10-day predictions


NORAD ID: 44529
Int'l Code: 2019-059B
Perigee: 738.8 km
Apogee: 758.7 km
Inclination: 98.6 °
Period: 99.6 minutes
Semi major axis: 7119 km
RCS: Unknown
Launch date: September 12, 2019
Source: People's Republic of China (PRC)
Launch site: Taiyaun Space Center, China (TSC)
aabbcc
Your satellite tracking list
Your tracking list is empty




NASA's NSSDC Master Catalog

Two Line Element Set (TLE):
1 44529U 19059B   19286.34706933  .00000009  00000-0  15560-4 0  9999
2 44529  98.5759 359.9009 0013979 175.2554 184.8772 14.45114387  4506
Source of the keplerian elements: AFSPC